This is the latest recevied weather packets stored in our database for station/object NC4M. If no packets are shown the sender has not sent any weather packets the latest 10 day(s).
| Time | Temp. | Humidity | Pressure | Rain* | Wind** | Luminosity | Snow |
|---|---|---|---|---|---|---|---|
| 1777416357 | 13.89° C | 95% | 1010.2 hPa | 0 mm | - | 17 W/m² | - |
| 1777416056 | 13.89° C | 95% | 1010 hPa | 0 mm | - | 40 W/m² | - |
| 1777415752 | 13.89° C | 95% | 1010.2 hPa | 0 mm | - | 49 W/m² | - |
| 1777415448 | 13.89° C | 95% | 1010.3 hPa | 0 mm | - | 54 W/m² | - |
| 1777415143 | 13.89° C | 95% | 1010.2 hPa | 0 mm | - | 90 W/m² | - |
| 1777414839 | 13.89° C | 95% | 1010.2 hPa | 1.78 mm | - | 96 W/m² | - |
| 1777414533 | 13.89° C | 95% | 1010 hPa | 1.78 mm | - | 56 W/m² | - |
| 1777414233 | 13.33° C | 95% | 1009.6 hPa | 0 mm | - | 62 W/m² | - |
| 1777413928 | 13.33° C | 95% | 1010.5 hPa | 0 mm | - | 75 W/m² | - |
| 1777413624 | 13.33° C | 95% | 1011.3 hPa | 1.27 mm | - | 70 W/m² | - |
| 1777413320 | 13.33° C | 95% | 1011.2 hPa | 4.32 mm | - | 55 W/m² | - |
| 1777413016 | 13.33° C | 95% | 1010.5 hPa | 4.83 mm | - | 51 W/m² | - |
| 1777412716 | 13.33° C | 95% | 1011.9 hPa | 3.05 mm | - | 36 W/m² | - |
| 1777412414 | 13.33° C | 95% | 1012.4 hPa | 4.32 mm | - | 34 W/m² | - |
| 1777412114 | 13.33° C | 94% | 1013.3 hPa | 4.83 mm | - | 31 W/m² | - |
| 1777411809 | 13.33° C | 94% | 1013.5 hPa | 6.6 mm | - | 21 W/m² | - |
| 1777411508 | 13.33° C | 94% | 1013.7 hPa | 6.1 mm | - | 24 W/m² | - |
| 1777411203 | 13.33° C | 94% | 1013.6 hPa | 6.1 mm | - | 17 W/m² | - |
| 1777410897 | 13.33° C | 94% | 1014.4 hPa | 6.1 mm | - | 22 W/m² | - |
| 1777410597 | 13.33° C | 94% | 1014.3 hPa | 6.1 mm | - | 22 W/m² | - |
| 1777410296 | 13.33° C | 94% | 1014.3 hPa | 4.32 mm | - | 21 W/m² | - |
| 1777409992 | 13.33° C | 94% | 1014.3 hPa | 3.05 mm | - | 16 W/m² | - |
| 1777409687 | 13.33° C | 94% | 1013.8 hPa | 1.78 mm | - | 14 W/m² | - |
| 1777409383 | 13.33° C | 94% | 1013.8 hPa | 1.78 mm | - | 14 W/m² | - |
| 1777409079 | 13.33° C | 93% | 1014.1 hPa | 1.78 mm | - | 14 W/m² | - |
* Rain latest hour (hover to see other rain measurements)
** Current wind speed in m/s (hover to see current wind gust speed)